Whippany, NJ

2:02 PM EST on December 06, 2016 (GMT -0500)
Morristown Municipal

Weather History for KMMU - November, 2012

Change the Weather History Date:

Sunday, November 18, 2012

  Actual Average Record
Temperature  
Mean Temperature 36 °F -  
Max Temperature 50 °F 52 °F 74 °F (1953)
Min Temperature 23 °F 30 °F 18 °F (1943)
Degree Days  
Heating Degree Days 28    
Moisture  
Dew Point 27 °F    
Average Humidity 89    
Maximum Humidity 100    
Minimum Humidity 50    
Precipitation  
Precipitation 0.00 in - - ()
Sea Level Pressure  
Sea Level Pressure 30.63 in    
Wind  
Wind Speed 1 mph (ENE)    
Max Wind Speed 6 mph    
Max Gust Speed -    
Visibility 10 miles    
Events      
Averages and records for this station are not official NWS values.
T = Trace of Precipitation, MM = Missing Value Source: NWS Daily Summary

Daily Weather History Graph

Daily Weather History Graph

Search for Another Location

Airport or City:

Trip Planner

Search our weather history database for the weather conditions in past years. The results will help you decide how hot, cold, wet, or windy it might be!

Date:

Astronomy

Nov. 18, 2012 Rise Set
Actual Time 6:48 AM EST 4:36 PM EST
Civil Twilight 6:19 AM EST 5:06 PM EST
Nautical Twilight 5:45 AM EST 5:39 PM EST
Astronomical Twilight 5:13 AM EST 6:12 PM EST
Moon 11:13 AM EST (11/18) 9:54 PM EST (11/18)
Length of Visible Light 10h 47m
Length of Day
9h 48m
Waxing Crescent, 30% of the Moon is Illuminated
Nov 18
Waxing Crescent
Nov 20
First Quarter
Nov 28
Full
Dec 6
Last Quarter
Dec 13
New

Hourly Weather History & Observations

Time (EST) Temp. Windchill Dew Point Humidity Pressure Visibility Wind Dir Wind Speed Gust Speed Precip Events Conditions
12:15 AM 26.6 °F - 26.6 °F 100% 30.64 in 10.0 mi Calm Calm - N/A   Clear
12:35 AM 24.8 °F - 24.8 °F 100% 30.64 in 10.0 mi Calm Calm - N/A   Clear
12:55 AM 26.6 °F - 26.6 °F 100% 30.64 in 10.0 mi Calm Calm - N/A   Clear
1:15 AM 24.8 °F - 24.8 °F 100% 30.64 in 10.0 mi Calm Calm - N/A   Clear
1:35 AM 24.8 °F - 24.8 °F 100% 30.64 in 10.0 mi Calm Calm - N/A   Clear
1:55 AM 24.8 °F - 24.8 °F 100% 30.64 in 10.0 mi Calm Calm - N/A   Clear
2:15 AM 24.8 °F - 24.8 °F 100% 30.64 in 10.0 mi Calm Calm - N/A   Clear
2:35 AM 24.8 °F - 24.8 °F 100% 30.64 in 7.0 mi Calm Calm - N/A   Clear
2:55 AM 24.8 °F - 24.8 °F 100% 30.64 in 10.0 mi Calm Calm - N/A   Clear
3:15 AM 24.8 °F - 24.8 °F 100% 30.63 in 10.0 mi Calm Calm - N/A   Clear
3:35 AM 24.8 °F - 24.8 °F 100% 30.64 in 10.0 mi Calm Calm - N/A   Clear
3:55 AM 24.8 °F - 24.8 °F 100% 30.64 in 7.0 mi Calm Calm - N/A   Clear
4:15 AM 24.8 °F - 24.8 °F 100% 30.64 in 10.0 mi Calm Calm - N/A   Clear
4:35 AM 24.8 °F - 23.0 °F 93% 30.64 in 10.0 mi Calm Calm - N/A   Clear
4:55 AM 23.0 °F - 23.0 °F 100% 30.64 in 10.0 mi Calm Calm - N/A   Clear
5:15 AM 23.0 °F - 23.0 °F 100% 30.65 in 10.0 mi Calm Calm - N/A   Clear
5:35 AM 23.0 °F - 23.0 °F 100% 30.64 in 7.0 mi Calm Calm - N/A   Clear
6:45 AM 23.0 °F - 21.2 °F 93% 30.67 in 10.0 mi Calm Calm - N/A   Partly Cloudy
7:45 AM 26.6 °F - 24.8 °F 93% 30.68 in 10.0 mi Calm Calm - N/A   Partly Cloudy
8:45 AM 32.0 °F - 30.2 °F 93% 30.68 in 10.0 mi Calm Calm - N/A   Scattered Clouds
9:45 AM 41.0 °F 37.1 °F 32.0 °F 70% 30.68 in 10.0 mi NE 5.8 mph - N/A   Scattered Clouds
10:45 AM 44.6 °F 41.4 °F 30.2 °F 57% 30.67 in 10.0 mi NE 5.8 mph - N/A   Mostly Cloudy
11:45 AM 48.2 °F - 30.2 °F 50% 30.64 in 10.0 mi NNE 5.8 mph - N/A   Mostly Cloudy
12:45 PM 48.2 °F - 30.2 °F 50% 30.62 in 10.0 mi ENE 3.5 mph - N/A   Mostly Cloudy
1:45 PM 48.2 °F - 32.0 °F 54% 30.62 in 10.0 mi East 4.6 mph - N/A   Mostly Cloudy
2:45 PM 50.0 °F - 32.0 °F 50% 30.61 in 10.0 mi ENE 3.5 mph - N/A   Mostly Cloudy
3:45 PM 48.2 °F - 30.2 °F 50% 30.61 in 10.0 mi East 3.5 mph - N/A   Mostly Cloudy
4:45 PM 42.8 °F 39.3 °F 32.0 °F 66% 30.61 in 10.0 mi East 5.8 mph - N/A   Mostly Cloudy
5:45 PM 35.6 °F - 30.2 °F 81% 30.61 in 10.0 mi Calm Calm - N/A   Mostly Cloudy
6:45 PM 33.8 °F - 30.2 °F 87% 30.62 in 10.0 mi Calm Calm - N/A   Clear
7:45 PM 33.8 °F - 30.2 °F 87% 30.61 in 10.0 mi Calm Calm - N/A   Clear
8:45 PM 30.2 °F - 30.2 °F 100% 30.62 in 10.0 mi Calm Calm - N/A   Clear
9:45 PM 30.2 °F - 28.4 °F 93% 30.60 in 10.0 mi Calm Calm - N/A   Clear
9:55 PM 28.4 °F - 28.4 °F 100% 30.59 in 7.0 mi Calm Calm - N/A   Mostly Cloudy
10:15 PM 30.2 °F - 30.2 °F 100% 30.59 in 10.0 mi Calm Calm - N/A   Overcast
10:35 PM 30.2 °F - 30.2 °F 100% 30.59 in 10.0 mi Calm Calm - N/A   Mostly Cloudy
10:55 PM 30.2 °F - 30.2 °F 100% 30.58 in 10.0 mi Calm Calm - N/A   Scattered Clouds
11:15 PM 28.4 °F - 28.4 °F 100% 30.58 in 10.0 mi Calm Calm - N/A   Clear
11:35 PM 28.4 °F - 28.4 °F 100% 30.58 in 10.0 mi Calm Calm - N/A   Clear
11:55 PM 30.2 °F - 28.4 °F 93% 30.57 in 10.0 mi Calm Calm - N/A   Scattered Clouds